Regional Weather Roundup
Issued by NWS

Home | Current Version | Previous Version | Graphics & Text | Print | Product List | Glossary On
Versions: 1 2 3 4 5 6 7 8 9 10 11 12 13 14 15 16 17 18 19 20 21 22 23 24 25 26 27 28 29 30 31 32 33 34 35 36 37 38 39 40 41 42 43 44 45 46 47 48 49 50
000
ASUS45 KSLC 011510
RWRUT

UTAH REGIONAL WEATHER ROUNDUP
NATIONAL WEATHER SERVICE SALT LAKE CITY UT
800 AM MST SUN MAR 01 2015

UTZ001>011-023>025-011600-

NORTHERN UTAH

CITY           SKY/WX    TMP DP  RH WIND       PRES   REMARKS
BRIGHAM CITY   CLEAR     28  16  60 NW13      30.08R WCI  17
HILL AFB       CLEAR     31  18  57 E18       30.05R WCI  19
LOGAN          CLEAR     23  16  74 CALM      30.11R
OGDEN          CLEAR     28  22  78 W7        30.05R WCI  21
PROVO AIRPORT  PTSUNNY   34  28  80 N3        30.06R
SALT LAKE CITY MOCLDY    34  31  88 CALM      30.06R
VERNAL         LGT SNOW  29  23  78 NE6       30.10R WCI  23
WENDOVER       PTCLDY    34  12  40 NE6       30.08R WCI  29
HEBER CITY     CLOUDY    27  25  93 CALM      30.05R
WEST JORDAN    CLOUDY    32  28  86 CALM      30.06R

$$

UTZ012>022-026-027-011600-

SOUTHERN/CENTRAL UTAH

CITY           SKY/WX    TMP DP  RH WIND       PRES   REMARKS
BLANDING       CLOUDY    32  32 100 NE3       30.13R
BRYCE CANYON   LGT SNOW  21  19  92 CALM      30.01R FOG
CEDAR CITY     MOCLDY    24  21  88 CALM      29.98R
DELTA          CLOUDY    33  33 100 CALM      30.04R
HANKSVILLE     CLOUDY    32  32 100 CALM      30.08R
MILFORD        CLOUDY    32  30  92 N3        30.02R
MOAB/CYNLANDS  SUNNY     29  28  96 CALM      30.03R
PRICE          CLOUDY    33  29  85 CALM      30.03R
ST GEORGE      CLOUDY    43  36  75 SE6       30.03R
KANAB            N/A     34  34 100 NW7       30.07R WCI  28

$$

REGIONAL REPORTS     COLORADO/ARIZONA

CITY           SKY/WX    TMP DP  RH WIND       PRES   REMARKS
CRAIG, CO      LGT SNOW  21  15  78 N5        30.12R WCI  15
GRAND JUNCTION CLOUDY    32  29  88 CALM      30.06R
RIFLE          CLOUDY    31  27  85 CALM      30.06R
MONTROSE       CLOUDY    31  27  85 S9        30.08R WCI  23
CORTEZ         LGT SNOW  33  32  96 NE7       30.08R FOG     WCI  27
PAGE, AZ       LGT RAIN  38  35  89 W3        30.04R FOG
GRAND CANYON   SNOW      32  31  96 SW7       30.02R VSB 1/2 WCI  26
KINGMAN        CLOUDY    48  35  60 CALM      29.96R
FLAGSTAFF      HVY SNOW  32  30  92 CALM      30.02R VSB 1/4

$$

REGIONAL REPORTS    NEVADA/IDAHO/WYOMING

CITY           SKY/WX    TMP DP  RH WIND       PRES   REMARKS
LAS VEGAS, NV  PTCLDY    47  34  60 S8        29.93R
ELY            LGT SNOW  27  25  92 NE6       30.01R FOG     WCI  20
ELKO           CLOUDY    30  16  56 NE12      30.02R WCI  20
POCATELLO, ID  CLEAR     17   5  59 NE7       30.17R WCI   8
BURLEY         CLEAR     22   7  52 E10       30.16R WCI  11
EVANSTON, WY   CLOUDY    17  14  88 E12       30.05R WCI   4
ROCK SPRINGS   MOSUNNY   10   4  76 NE5       30.11R WCI   2

$$



USA.gov is the U.S. government's official web portal to all federal, state and local government web resources and services.